Flag for Germany Weather past 2 weeks in Rathenow, Brandenburg, Germany

Now
43 °F

Overcast.


Feels Like: 38 °F
Forecast: 24 / 35 °F
Wind: 8 mph from West

Location: Neuruppin

Current Time: Dec 25, 2014 at 3:25:19 PM

Latest Report: Dec 25, 2014 at 3:00 PM


Visibility: 6 mi

Pressure: 29.92 "Hg

Humidity: 66%

Dew point: 33 °F

Location of RathenowLocation

Historic Weather in Rathenow — Graph

°F

Rathenow temperature yesterday

Maximum temperature yesterday: 49 °F (at 2:00 AM)
Minimum temperature yesterday: 40 °F (at 11:00 PM)
Average temperature yesterday: 46 °F

Past Weeks' High & Low Weather Summary

 TemperatureHumidityPressure
High53 °F (Dec 18, 11:00 PM)100% (Dec 14, 3:00 AM)30.22 "Hg (Dec 14, 3:00 AM)
Low32 °F (Dec 14, 11:00 PM)68% (Dec 25, 2:00 PM)29.32 "Hg (Dec 12, 6:00 PM)
Average42 °F90%29.81 "Hg
* Reported Dec 10 2:00 PM — Dec 25 2:00 PM, Rathenow, Weather by CustomWeather, © 2014

Note: Actual official high and low records may vary slightly from our data, if they occured in-between our weather recording intervals... More about our weather records

Advertising

Rathenow weather history for previous 24 hours

 ConditionsComfort  
Time TempWeatherWind HumidityBarometerVisibility
2:00 PM
Dec 25
44 °FPassing clouds.7 mph68%29.91 "Hg6 mi
1:00 PM44 °FOvercast.9 mph75%29.91 "Hg6 mi
12:00 PM43 °FOvercast.6 mph77%29.91 "Hg6 mi
11:00 AM42 °FOvercast.6 mph81%29.92 "Hg6 mi
9:00 AM40 °FOvercast.5 mph84%29.93 "Hg6 mi
8:00 AM38 °FOvercast.5 mph88%29.92 "Hg6 mi
7:00 AM36 °FPassing clouds.3 mph91%29.94 "Hg6 mi
6:00 AM37 °FPassing clouds.3 mph90%29.94 "Hg6 mi
5:00 AM38 °FOvercast.3 mph90%29.95 "Hg6 mi
3:00 AM38 °FOvercast.5 mph91%29.95 "Hg6 mi
2:00 AM38 °FOvercast.3 mph91%29.93 "Hg6 mi
1:00 AM38 °FClear.3 mph91%29.93 "Hg6 mi
12:00 AM39 °FClear.3 mph91%29.91 "Hg6 mi
11:00 PM
Dec 24
40 °FPassing clouds.5 mph89%29.91 "Hg6 mi
9:00 PM41 °FClear.5 mph86%29.87 "Hg7 mi
8:00 PM43 °FPassing clouds.5 mph85%29.85 "Hg6 mi
7:00 PM44 °FOvercast.5 mph85%29.83 "Hg6 mi
6:00 PM44 °FOvercast.3 mph85%29.81 "Hg6 mi
5:00 PM45 °FOvercast.6 mph82%29.79 "Hg6 mi
3:00 PM47 °FOvercast.7 mph92%29.76 "Hg6 mi
Weather by CustomWeather, © 2014

See weather overviewHow to use our weather pages